Date_Time,Julian_Date,Latitude,Longitude,Instrument_Depth,U,V,Speed,Direction
(yyyy-mm-dd hh:mn:ss UTC),(JD),(+ deg. North),(+ deg. East),(m),(cm/s),(cm/s),(cm/s),(deg True)
1981-09-03 22:00:00 UTC,2444851.416667,29.6650,-93.4789,0073,-2.67,1.36,3.0000,297.0000
1981-09-03 22:30:00 UTC,2444851.437500,29.6650,-93.4789,0073,-0.88,0.47,1.0000,298.0000
1981-09-03 23:00:00 UTC,2444851.458333,29.6650,-93.4789,0073,-0.64,0.77,1.0000,320.0000
1981-09-03 23:30:00 UTC,2444851.479167,29.6650,-93.4789,0073,-2.57,3.06,4.0000,320.0000
1981-09-04 00:00:00 UTC,2444851.500000,29.6650,-93.4789,0073,-3.71,5.94,7.0000,328.0000
1981-09-04 00:30:00 UTC,2444851.520833,29.6650,-93.4789,0073,-1.85,5.71,6.0000,342.0000
1981-09-04 01:00:00 UTC,2444851.541667,29.6650,-93.4789,0073,-0.21,3.99,4.0000,357.0000
1981-09-04 01:30:00 UTC,2444851.562500,29.6650,-93.4789,0073,0.17,1.99,2.0000,5.0000
1981-09-04 02:00:00 UTC,2444851.583333,29.6650,-93.4789,0073,0.21,0.98,1.0000,12.0000
1981-09-04 02:30:00 UTC,2444851.604167,29.6650,-93.4789,0073,0.37,0.93,1.0000,22.0000
1981-09-04 03:00:00 UTC,2444851.625000,29.6650,-93.4789,0073,0.00,0.00,0.0000,45.0000
1981-09-04 03:30:00 UTC,2444851.645833,29.6650,-93.4789,0073,0.00,0.00,0.0000,59.0000
1981-09-04 04:00:00 UTC,2444851.666667,29.6650,-93.4789,0073,0.00,0.00,0.0000,65.0000
1981-09-04 04:30:00 UTC,2444851.687500,29.6650,-93.4789,0073,0.00,0.00,0.0000,81.0000
1981-09-04 05:00:00 UTC,2444851.708333,29.6650,-93.4789,0073,0.00,0.00,0.0000,89.0000
1981-09-04 05:30:00 UTC,2444851.729167,29.6650,-93.4789,0073,0.00,0.00,0.0000,86.0000
1981-09-04 06:00:00 UTC,2444851.750000,29.6650,-93.4789,0073,0.00,0.00,0.0000,86.0000
1981-09-04 06:30:00 UTC,2444851.770833,29.6650,-93.4789,0073,0.00,0.00,0.0000,86.0000
1981-09-04 07:00:00 UTC,2444851.791667,29.6650,-93.4789,0073,-0.00,0.00,0.0000,330.0000
1981-09-04 07:30:00 UTC,2444851.812500,29.6650,-93.4789,0073,0.00,-0.00,0.0000,148.0000
1981-09-04 08:00:00 UTC,2444851.833333,29.6650,-93.4789,0073,0.52,-0.86,1.0000,149.0000
1981-09-04 08:30:00 UTC,2444851.854167,29.6650,-93.4789,0073,0.10,-0.99,1.0000,174.0000
1981-09-04 09:00:00 UTC,2444851.875000,29.6650,-93.4789,0073,-1.36,-2.67,3.0000,207.0000
1981-09-04 09:30:00 UTC,2444851.895833,29.6650,-93.4789,0073,-3.91,-5.80,7.0000,214.0000
1981-09-04 10:00:00 UTC,2444851.916667,29.6650,-93.4789,0073,-6.02,-7.99,10.0000,217.0000
1981-09-04 10:30:00 UTC,2444851.937500,29.6650,-93.4789,0073,-8.36,-9.96,13.0000,220.0000
1981-09-04 11:00:00 UTC,2444851.958333,29.6650,-93.4789,0073,-9.00,-10.72,14.0000,220.0000
1981-09-04 11:30:00 UTC,2444851.979167,29.6650,-93.4789,0073,-9.00,-10.72,14.0000,220.0000
1981-09-04 12:00:00 UTC,2444852.000000,29.6650,-93.4789,0073,-9.90,-9.90,14.0000,225.0000
1981-09-04 12:30:00 UTC,2444852.020833,29.6650,-93.4789,0073,-11.32,-9.84,15.0000,229.0000
1981-09-04 13:00:00 UTC,2444852.041667,29.6650,-93.4789,0073,-11.32,-9.84,15.0000,229.0000
1981-09-04 13:30:00 UTC,2444852.062500,29.6650,-93.4789,0073,-10.57,-9.18,14.0000,229.0000
1981-09-04 14:00:00 UTC,2444852.083333,29.6650,-93.4789,0073,-8.43,-7.07,11.0000,230.0000
1981-09-04 14:30:00 UTC,2444852.104167,29.6650,-93.4789,0073,-5.28,-4.59,7.0000,229.0000
1981-09-04 15:00:00 UTC,2444852.125000,29.6650,-93.4789,0073,-2.26,-1.97,3.0000,229.0000
1981-09-04 15:30:00 UTC,2444852.145833,29.6650,-93.4789,0073,-1.49,-1.34,2.0000,228.0000
1981-09-04 16:00:00 UTC,2444852.166667,29.6650,-93.4789,0073,0.54,-0.84,1.0000,147.0000
1981-09-04 16:30:00 UTC,2444852.187500,29.6650,-93.4789,0073,5.64,2.05,6.0000,70.0000
1981-09-04 17:00:00 UTC,2444852.208333,29.6650,-93.4789,0073,8.09,3.95,9.0000,64.0000
1981-09-04 17:30:00 UTC,2444852.229167,29.6650,-93.4789,0073,7.55,4.90,9.0000,57.0000
1981-09-04 18:00:00 UTC,2444852.250000,29.6650,-93.4789,0073,7.37,5.16,9.0000,55.0000
1981-09-04 18:30:00 UTC,2444852.270833,29.6650,-93.4789,0073,9.06,4.23,10.0000,65.0000
1981-09-04 19:00:00 UTC,2444852.291667,29.6650,-93.4789,0073,11.54,3.31,12.0000,74.0000
1981-09-04 19:30:00 UTC,2444852.312500,29.6650,-93.4789,0073,11.54,3.31,12.0000,74.0000
1981-09-04 20:00:00 UTC,2444852.333333,29.6650,-93.4789,0073,9.14,4.07,10.0000,66.0000
1981-09-04 20:30:00 UTC,2444852.354167,29.6650,-93.4789,0073,5.66,4.11,7.0000,54.0000
1981-09-04 21:00:00 UTC,2444852.375000,29.6650,-93.4789,0073,4.46,4.01,6.0000,48.0000
1981-09-04 21:30:00 UTC,2444852.395833,29.6650,-93.4789,0073,3.35,2.18,4.0000,57.0000
1981-09-04 22:00:00 UTC,2444852.416667,29.6650,-93.4789,0073,2.78,1.12,3.0000,68.0000
1981-09-04 22:30:00 UTC,2444852.437500,29.6650,-93.4789,0073,1.88,0.68,2.0000,70.0000
1981-09-04 23:00:00 UTC,2444852.458333,29.6650,-93.4789,0073,1.88,0.68,2.0000,70.0000
1981-09-04 23:30:00 UTC,2444852.479167,29.6650,-93.4789,0073,1.87,0.72,2.0000,69.0000
1981-09-05 00:00:00 UTC,2444852.500000,29.6650,-93.4789,0073,3.46,2.00,4.0000,60.0000
1981-09-05 00:30:00 UTC,2444852.520833,29.6650,-93.4789,0073,2.06,3.43,4.0000,31.0000
1981-09-05 01:00:00 UTC,2444852.541667,29.6650,-93.4789,0073,-1.65,5.77,6.0000,344.0000
1981-09-05 01:30:00 UTC,2444852.562500,29.6650,-93.4789,0073,-4.11,5.66,7.0000,324.0000
1981-09-05 02:00:00 UTC,2444852.583333,29.6650,-93.4789,0073,-3.28,3.77,5.0000,319.0000
1981-09-05 02:30:00 UTC,2444852.604167,29.6650,-93.4789,0073,-2.97,2.68,4.0000,312.0000
1981-09-05 03:00:00 UTC,2444852.625000,29.6650,-93.4789,0073,-4.53,2.11,5.0000,295.0000
1981-09-05 03:30:00 UTC,2444852.645833,29.6650,-93.4789,0073,-4.78,1.46,5.0000,287.0000
1981-09-05 04:00:00 UTC,2444852.666667,29.6650,-93.4789,0073,-4.64,1.87,5.0000,292.0000
1981-09-05 04:30:00 UTC,2444852.687500,29.6650,-93.4789,0073,-3.19,2.41,4.0000,307.0000
1981-09-05 05:00:00 UTC,2444852.708333,29.6650,-93.4789,0073,-1.63,2.52,3.0000,327.0000
1981-09-05 05:30:00 UTC,2444852.729167,29.6650,-93.4789,0073,-1.03,2.82,3.0000,340.0000
1981-09-05 06:00:00 UTC,2444852.750000,29.6650,-93.4789,0073,-0.55,1.92,2.0000,344.0000
1981-09-05 06:30:00 UTC,2444852.770833,29.6650,-93.4789,0073,-0.29,0.96,1.0000,343.0000
1981-09-05 07:00:00 UTC,2444852.791667,29.6650,-93.4789,0073,-0.00,0.00,0.0000,345.0000
1981-09-05 07:30:00 UTC,2444852.812500,29.6650,-93.4789,0073,-0.26,0.97,1.0000,345.0000
1981-09-05 08:00:00 UTC,2444852.833333,29.6650,-93.4789,0073,-0.52,1.93,2.0000,345.0000
1981-09-05 08:30:00 UTC,2444852.854167,29.6650,-93.4789,0073,-0.78,2.90,3.0000,345.0000
1981-09-05 09:00:00 UTC,2444852.875000,29.6650,-93.4789,0073,-0.97,3.88,4.0000,346.0000
1981-09-05 09:30:00 UTC,2444852.895833,29.6650,-93.4789,0073,-0.76,3.93,4.0000,349.0000
1981-09-05 10:00:00 UTC,2444852.916667,29.6650,-93.4789,0073,-0.42,2.97,3.0000,352.0000
1981-09-05 10:30:00 UTC,2444852.937500,29.6650,-93.4789,0073,-0.21,1.99,2.0000,354.0000
1981-09-05 11:00:00 UTC,2444852.958333,29.6650,-93.4789,0073,-0.21,1.99,2.0000,354.0000
1981-09-05 11:30:00 UTC,2444852.979167,29.6650,-93.4789,0073,-0.21,1.99,2.0000,354.0000
1981-09-05 12:00:00 UTC,2444853.000000,29.6650,-93.4789,0073,-0.21,1.99,2.0000,354.0000
1981-09-05 12:30:00 UTC,2444853.020833,29.6650,-93.4789,0073,-0.21,1.99,2.0000,354.0000
1981-09-05 13:00:00 UTC,2444853.041667,29.6650,-93.4789,0073,-0.24,1.99,2.0000,353.0000
1981-09-05 13:30:00 UTC,2444853.062500,29.6650,-93.4789,0073,-0.24,1.99,2.0000,353.0000
1981-09-05 14:00:00 UTC,2444853.083333,29.6650,-93.4789,0073,-0.37,2.98,3.0000,353.0000
1981-09-05 14:30:00 UTC,2444853.104167,29.6650,-93.4789,0073,-0.49,3.97,4.0000,353.0000
1981-09-05 15:00:00 UTC,2444853.125000,29.6650,-93.4789,0073,-0.61,4.96,5.0000,353.0000
1981-09-05 15:30:00 UTC,2444853.145833,29.6650,-93.4789,0073,-0.49,3.97,4.0000,353.0000
1981-09-05 16:00:00 UTC,2444853.166667,29.6650,-93.4789,0073,-0.37,2.98,3.0000,353.0000
1981-09-05 16:30:00 UTC,2444853.187500,29.6650,-93.4789,0073,-0.24,1.99,2.0000,353.0000
1981-09-05 17:00:00 UTC,2444853.208333,29.6650,-93.4789,0073,-0.24,1.99,2.0000,353.0000
1981-09-05 17:30:00 UTC,2444853.229167,29.6650,-93.4789,0073,-0.37,2.98,3.0000,353.0000
1981-09-05 18:00:00 UTC,2444853.250000,29.6650,-93.4789,0073,-0.21,1.99,2.0000,354.0000
1981-09-05 18:30:00 UTC,2444853.270833,29.6650,-93.4789,0073,-0.26,2.99,3.0000,355.0000
1981-09-05 19:00:00 UTC,2444853.291667,29.6650,-93.4789,0073,-0.26,2.99,3.0000,355.0000
1981-09-05 19:30:00 UTC,2444853.312500,29.6650,-93.4789,0073,-0.17,1.99,2.0000,355.0000
1981-09-05 20:00:00 UTC,2444853.333333,29.6650,-93.4789,0073,-0.17,1.99,2.0000,355.0000
1981-09-05 20:30:00 UTC,2444853.354167,29.6650,-93.4789,0073,-0.17,1.99,2.0000,355.0000
1981-09-05 21:00:00 UTC,2444853.375000,29.6650,-93.4789,0073,-0.09,1.00,1.0000,355.0000
1981-09-05 21:30:00 UTC,2444853.395833,29.6650,-93.4789,0073,-0.09,1.00,1.0000,355.0000
1981-09-05 22:00:00 UTC,2444853.416667,29.6650,-93.4789,0073,-0.17,1.99,2.0000,355.0000
1981-09-05 22:30:00 UTC,2444853.437500,29.6650,-93.4789,0073,-0.17,1.99,2.0000,355.0000
1981-09-05 23:00:00 UTC,2444853.458333,29.6650,-93.4789,0073,-0.26,2.99,3.0000,355.0000
1981-09-05 23:30:00 UTC,2444853.479167,29.6650,-93.4789,0073,-0.26,2.99,3.0000,355.0000
1981-09-06 00:00:00 UTC,2444853.500000,29.6650,-93.4789,0073,-0.14,2.00,2.0000,356.0000
1981-09-06 00:30:00 UTC,2444853.520833,29.6650,-93.4789,0073,-0.14,2.00,2.0000,356.0000
1981-09-06 01:00:00 UTC,2444853.541667,29.6650,-93.4789,0073,-0.38,1.96,2.0000,349.0000
1981-09-06 01:30:00 UTC,2444853.562500,29.6650,-93.4789,0073,-1.55,2.57,3.0000,329.0000
1981-09-06 02:00:00 UTC,2444853.583333,29.6650,-93.4789,0073,-2.78,2.88,4.0000,316.0000
1981-09-06 02:30:00 UTC,2444853.604167,29.6650,-93.4789,0073,-2.83,2.83,4.0000,315.0000
1981-09-06 03:00:00 UTC,2444853.625000,29.6650,-93.4789,0073,-2.16,2.08,3.0000,314.0000
1981-09-06 03:30:00 UTC,2444853.645833,29.6650,-93.4789,0073,-2.16,2.08,3.0000,314.0000
1981-09-06 04:00:00 UTC,2444853.666667,29.6650,-93.4789,0073,-2.08,2.16,3.0000,316.0000
1981-09-06 04:30:00 UTC,2444853.687500,29.6650,-93.4789,0073,-1.93,2.30,3.0000,320.0000
1981-09-06 05:00:00 UTC,2444853.708333,29.6650,-93.4789,0073,-1.50,2.60,3.0000,330.0000
1981-09-06 05:30:00 UTC,2444853.729167,29.6650,-93.4789,0073,-0.73,2.91,3.0000,346.0000
1981-09-06 06:00:00 UTC,2444853.750000,29.6650,-93.4789,0073,0.42,2.97,3.0000,8.0000
1981-09-06 06:30:00 UTC,2444853.770833,29.6650,-93.4789,0073,2.78,2.88,4.0000,44.0000
1981-09-06 07:00:00 UTC,2444853.791667,29.6650,-93.4789,0073,5.74,1.75,6.0000,73.0000
1981-09-06 07:30:00 UTC,2444853.812500,29.6650,-93.4789,0073,7.00,-0.12,7.0000,91.0000
1981-09-06 08:00:00 UTC,2444853.833333,29.6650,-93.4789,0073,6.85,-1.46,7.0000,102.0000
1981-09-06 08:30:00 UTC,2444853.854167,29.6650,-93.4789,0073,4.89,-1.04,5.0000,102.0000
1981-09-06 09:00:00 UTC,2444853.875000,29.6650,-93.4789,0073,4.99,-0.35,5.0000,94.0000
1981-09-06 09:30:00 UTC,2444853.895833,29.6650,-93.4789,0073,4.94,-0.78,5.0000,99.0000
1981-09-06 10:00:00 UTC,2444853.916667,29.6650,-93.4789,0073,3.56,-1.82,4.0000,117.0000
1981-09-06 10:30:00 UTC,2444853.937500,29.6650,-93.4789,0073,2.46,-3.15,4.0000,142.0000
1981-09-06 11:00:00 UTC,2444853.958333,29.6650,-93.4789,0073,0.87,-4.92,5.0000,170.0000
1981-09-06 11:30:00 UTC,2444853.979167,29.6650,-93.4789,0073,0.49,-6.98,7.0000,176.0000
1981-09-06 12:00:00 UTC,2444854.000000,29.6650,-93.4789,0073,0.52,-9.99,10.0000,177.0000
1981-09-06 12:30:00 UTC,2444854.020833,29.6650,-93.4789,0073,-1.05,-11.95,12.0000,185.0000
1981-09-06 13:00:00 UTC,2444854.041667,29.6650,-93.4789,0073,-3.62,-13.52,14.0000,195.0000
1981-09-06 13:30:00 UTC,2444854.062500,29.6650,-93.4789,0073,-4.64,-14.27,15.0000,198.0000
1981-09-06 14:00:00 UTC,2444854.083333,29.6650,-93.4789,0073,-6.51,-14.62,16.0000,204.0000
1981-09-06 14:30:00 UTC,2444854.104167,29.6650,-93.4789,0073,-8.95,-13.26,16.0000,214.0000
1981-09-06 15:00:00 UTC,2444854.125000,29.6650,-93.4789,0073,-10.91,-11.70,16.0000,223.0000
1981-09-06 15:30:00 UTC,2444854.145833,29.6650,-93.4789,0073,-11.89,-10.71,16.0000,228.0000
1981-09-06 16:00:00 UTC,2444854.166667,29.6650,-93.4789,0073,-11.49,-9.64,15.0000,230.0000
1981-09-06 16:30:00 UTC,2444854.187500,29.6650,-93.4789,0073,-9.58,-7.22,12.0000,233.0000
1981-09-06 17:00:00 UTC,2444854.208333,29.6650,-93.4789,0073,-7.99,-6.02,10.0000,233.0000
1981-09-06 17:30:00 UTC,2444854.229167,29.6650,-93.4789,0073,-8.17,-7.36,11.0000,228.0000
1981-09-06 18:00:00 UTC,2444854.250000,29.6650,-93.4789,0073,-7.78,-7.78,11.0000,225.0000
1981-09-06 18:30:00 UTC,2444854.270833,29.6650,-93.4789,0073,-7.50,-8.04,11.0000,223.0000
1981-09-06 19:00:00 UTC,2444854.291667,29.6650,-93.4789,0073,-7.36,-8.17,11.0000,222.0000
1981-09-06 19:30:00 UTC,2444854.312500,29.6650,-93.4789,0073,-6.82,-7.31,10.0000,223.0000
1981-09-06 20:00:00 UTC,2444854.333333,29.6650,-93.4789,0073,-5.66,-5.66,8.0000,225.0000
1981-09-06 20:30:00 UTC,2444854.354167,29.6650,-93.4789,0073,-4.10,-2.87,5.0000,235.0000
1981-09-06 21:00:00 UTC,2444854.375000,29.6650,-93.4789,0073,-4.78,1.46,5.0000,287.0000
1981-09-06 21:30:00 UTC,2444854.395833,29.6650,-93.4789,0073,-4.81,6.39,8.0000,323.0000
1981-09-06 22:00:00 UTC,2444854.416667,29.6650,-93.4789,0073,-3.91,9.21,10.0000,337.0000
1981-09-06 22:30:00 UTC,2444854.437500,29.6650,-93.4789,0073,-3.58,10.40,11.0000,341.0000
1981-09-06 23:00:00 UTC,2444854.458333,29.6650,-93.4789,0073,-4.88,10.96,12.0000,336.0000
1981-09-06 23:30:00 UTC,2444854.479167,29.6650,-93.4789,0073,-7.62,11.74,14.0000,327.0000
1981-09-07 00:00:00 UTC,2444854.500000,29.6650,-93.4789,0073,-9.23,11.82,15.0000,322.0000
1981-09-07 00:30:00 UTC,2444854.520833,29.6650,-93.4789,0073,-10.91,11.70,16.0000,317.0000
1981-09-07 01:00:00 UTC,2444854.541667,29.6650,-93.4789,0073,-11.15,10.04,15.0000,312.0000
1981-09-07 01:30:00 UTC,2444854.562500,29.6650,-93.4789,0073,-10.24,8.00,13.0000,308.0000
1981-09-07 02:00:00 UTC,2444854.583333,29.6650,-93.4789,0073,-10.65,7.46,13.0000,305.0000
1981-09-07 02:30:00 UTC,2444854.604167,29.6650,-93.4789,0073,-10.18,6.36,12.0000,302.0000
1981-09-07 03:00:00 UTC,2444854.625000,29.6650,-93.4789,0073,-10.18,6.36,12.0000,302.0000
1981-09-07 03:30:00 UTC,2444854.645833,29.6650,-93.4789,0073,-8.39,5.45,10.0000,303.0000
1981-09-07 04:00:00 UTC,2444854.666667,29.6650,-93.4789,0073,-7.00,3.88,8.0000,299.0000
1981-09-07 04:30:00 UTC,2444854.687500,29.6650,-93.4789,0073,-5.48,2.44,6.0000,294.0000
1981-09-07 05:00:00 UTC,2444854.708333,29.6650,-93.4789,0073,-5.44,2.54,6.0000,295.0000
1981-09-07 05:30:00 UTC,2444854.729167,29.6650,-93.4789,0073,-4.41,2.35,5.0000,298.0000
1981-09-07 06:00:00 UTC,2444854.750000,29.6650,-93.4789,0073,-3.56,1.82,4.0000,297.0000
1981-09-07 06:30:00 UTC,2444854.770833,29.6650,-93.4789,0073,-1.93,0.52,2.0000,285.0000
1981-09-07 07:00:00 UTC,2444854.791667,29.6650,-93.4789,0073,-0.59,-0.81,1.0000,216.0000
1981-09-07 07:30:00 UTC,2444854.812500,29.6650,-93.4789,0073,0.72,-1.87,2.0000,159.0000
1981-09-07 08:00:00 UTC,2444854.833333,29.6650,-93.4789,0073,0.81,-1.83,2.0000,156.0000
1981-09-07 08:30:00 UTC,2444854.854167,29.6650,-93.4789,0073,0.78,-1.84,2.0000,157.0000
1981-09-07 09:00:00 UTC,2444854.875000,29.6650,-93.4789,0073,0.37,-0.93,1.0000,158.0000
1981-09-07 09:30:00 UTC,2444854.895833,29.6650,-93.4789,0073,0.36,-0.93,1.0000,159.0000
1981-09-07 10:00:00 UTC,2444854.916667,29.6650,-93.4789,0073,0.72,-1.87,2.0000,159.0000
1981-09-07 10:30:00 UTC,2444854.937500,29.6650,-93.4789,0073,1.03,-2.82,3.0000,160.0000
1981-09-07 11:00:00 UTC,2444854.958333,29.6650,-93.4789,0073,0.26,-2.99,3.0000,175.0000
1981-09-07 11:30:00 UTC,2444854.979167,29.6650,-93.4789,0073,-1.98,-0.28,2.0000,262.0000
1981-09-07 12:00:00 UTC,2444855.000000,29.6650,-93.4789,0073,-3.56,1.82,4.0000,297.0000
1981-09-07 12:30:00 UTC,2444855.020833,29.6650,-93.4789,0073,-3.83,3.21,5.0000,310.0000
1981-09-07 13:00:00 UTC,2444855.041667,29.6650,-93.4789,0073,-3.61,4.79,6.0000,323.0000
1981-09-07 13:30:00 UTC,2444855.062500,29.6650,-93.4789,0073,-3.50,6.06,7.0000,330.0000
1981-09-07 14:00:00 UTC,2444855.083333,29.6650,-93.4789,0073,-3.18,6.24,7.0000,333.0000
1981-09-07 14:30:00 UTC,2444855.104167,29.6650,-93.4789,0073,-2.96,6.34,7.0000,335.0000
1981-09-07 15:00:00 UTC,2444855.125000,29.6650,-93.4789,0073,-2.91,5.25,6.0000,331.0000
1981-09-07 15:30:00 UTC,2444855.145833,29.6650,-93.4789,0073,-3.27,5.03,6.0000,327.0000
1981-09-07 16:00:00 UTC,2444855.166667,29.6650,-93.4789,0073,-3.18,5.09,6.0000,328.0000
1981-09-07 16:30:00 UTC,2444855.187500,29.6650,-93.4789,0073,-2.00,3.46,4.0000,330.0000
1981-09-07 17:00:00 UTC,2444855.208333,29.6650,-93.4789,0073,-0.97,1.75,2.0000,331.0000
1981-09-07 17:30:00 UTC,2444855.229167,29.6650,-93.4789,0073,-0.67,0.74,1.0000,318.0000
1981-09-07 18:00:00 UTC,2444855.250000,29.6650,-93.4789,0073,-2.00,0.14,2.0000,274.0000
1981-09-07 18:30:00 UTC,2444855.270833,29.6650,-93.4789,0073,-4.94,-0.78,5.0000,261.0000
1981-09-07 19:00:00 UTC,2444855.291667,29.6650,-93.4789,0073,-4.89,-1.04,5.0000,258.0000
1981-09-07 19:30:00 UTC,2444855.312500,29.6650,-93.4789,0073,-4.89,-1.04,5.0000,258.0000
1981-09-07 20:00:00 UTC,2444855.333333,29.6650,-93.4789,0073,-3.91,-0.83,4.0000,258.0000
1981-09-07 20:30:00 UTC,2444855.354167,29.6650,-93.4789,0073,-2.94,-0.57,3.0000,259.0000
1981-09-07 21:00:00 UTC,2444855.375000,29.6650,-93.4789,0073,-1.97,-0.35,2.0000,260.0000
1981-09-07 21:30:00 UTC,2444855.395833,29.6650,-93.4789,0073,-0.98,-0.17,1.0000,260.0000
1981-09-07 22:00:00 UTC,2444855.416667,29.6650,-93.4789,0073,-0.00,-0.00,0.0000,259.0000
1981-09-07 22:30:00 UTC,2444855.437500,29.6650,-93.4789,0073,-0.98,-0.19,1.0000,259.0000
1981-09-07 23:00:00 UTC,2444855.458333,29.6650,-93.4789,0073,-1.96,-0.38,2.0000,259.0000
1981-09-07 23:30:00 UTC,2444855.479167,29.6650,-93.4789,0073,-1.96,-0.38,2.0000,259.0000
1981-09-08 00:00:00 UTC,2444855.500000,29.6650,-93.4789,0073,-1.96,-0.42,2.0000,258.0000
1981-09-08 00:30:00 UTC,2444855.520833,29.6650,-93.4789,0073,-3.91,-0.83,4.0000,258.0000
1981-09-08 01:00:00 UTC,2444855.541667,29.6650,-93.4789,0073,-4.89,-1.04,5.0000,258.0000
1981-09-08 01:30:00 UTC,2444855.562500,29.6650,-93.4789,0073,-5.87,-1.25,6.0000,258.0000
1981-09-08 02:00:00 UTC,2444855.583333,29.6650,-93.4789,0073,-5.87,-1.25,6.0000,258.0000
1981-09-08 02:30:00 UTC,2444855.604167,29.6650,-93.4789,0073,-5.87,-1.25,6.0000,258.0000
1981-09-08 03:00:00 UTC,2444855.625000,29.6650,-93.4789,0073,-6.85,-1.46,7.0000,258.0000
1981-09-08 03:30:00 UTC,2444855.645833,29.6650,-93.4789,0073,-6.85,-1.46,7.0000,258.0000
1981-09-08 04:00:00 UTC,2444855.666667,29.6650,-93.4789,0073,-7.92,-1.11,8.0000,262.0000
1981-09-08 04:30:00 UTC,2444855.687500,29.6650,-93.4789,0073,-8.00,-0.00,8.0000,270.0000
1981-09-08 05:00:00 UTC,2444855.708333,29.6650,-93.4789,0073,-7.96,0.84,8.0000,276.0000
1981-09-08 05:30:00 UTC,2444855.729167,29.6650,-93.4789,0073,-6.95,0.85,7.0000,277.0000
1981-09-08 06:00:00 UTC,2444855.750000,29.6650,-93.4789,0073,-5.96,0.73,6.0000,277.0000
1981-09-08 06:30:00 UTC,2444855.770833,29.6650,-93.4789,0073,-3.97,0.49,4.0000,277.0000
1981-09-08 07:00:00 UTC,2444855.791667,29.6650,-93.4789,0073,-2.98,0.37,3.0000,277.0000
1981-09-08 07:30:00 UTC,2444855.812500,29.6650,-93.4789,0073,-0.99,0.12,1.0000,277.0000
1981-09-08 08:00:00 UTC,2444855.833333,29.6650,-93.4789,0073,-1.98,0.31,2.0000,279.0000
1981-09-08 08:30:00 UTC,2444855.854167,29.6650,-93.4789,0073,-2.72,1.27,3.0000,295.0000
1981-09-08 09:00:00 UTC,2444855.875000,29.6650,-93.4789,0073,0.37,2.98,3.0000,7.0000
1981-09-08 09:30:00 UTC,2444855.895833,29.6650,-93.4789,0073,4.95,4.95,7.0000,45.0000
1981-09-08 10:00:00 UTC,2444855.916667,29.6650,-93.4789,0073,7.46,5.03,9.0000,56.0000
1981-09-08 10:30:00 UTC,2444855.937500,29.6650,-93.4789,0073,8.99,4.38,10.0000,64.0000
1981-09-08 11:00:00 UTC,2444855.958333,29.6650,-93.4789,0073,10.13,4.30,11.0000,67.0000
1981-09-08 11:30:00 UTC,2444855.979167,29.6650,-93.4789,0073,9.97,4.65,11.0000,65.0000
1981-09-08 12:00:00 UTC,2444856.000000,29.6650,-93.4789,0073,10.50,5.82,12.0000,61.0000
1981-09-08 12:30:00 UTC,2444856.020833,29.6650,-93.4789,0073,9.43,5.67,11.0000,59.0000
1981-09-08 13:00:00 UTC,2444856.041667,29.6650,-93.4789,0073,7.79,4.50,9.0000,60.0000
1981-09-08 13:30:00 UTC,2444856.062500,29.6650,-93.4789,0073,5.44,2.54,6.0000,65.0000
1981-09-08 14:00:00 UTC,2444856.083333,29.6650,-93.4789,0073,4.67,1.79,5.0000,69.0000
1981-09-08 14:30:00 UTC,2444856.104167,29.6650,-93.4789,0073,2.82,1.03,3.0000,70.0000
1981-09-08 15:00:00 UTC,2444856.125000,29.6650,-93.4789,0073,1.84,0.78,2.0000,67.0000
1981-09-08 15:30:00 UTC,2444856.145833,29.6650,-93.4789,0073,0.90,0.44,1.0000,64.0000
1981-09-08 16:00:00 UTC,2444856.166667,29.6650,-93.4789,0073,0.00,0.00,0.0000,64.0000
1981-09-08 16:30:00 UTC,2444856.187500,29.6650,-93.4789,0073,0.00,0.00,0.0000,68.0000
1981-09-08 17:00:00 UTC,2444856.208333,29.6650,-93.4789,0073,0.96,0.28,1.0000,74.0000
1981-09-08 17:30:00 UTC,2444856.229167,29.6650,-93.4789,0073,2.00,-0.03,2.0000,91.0000
1981-09-08 18:00:00 UTC,2444856.250000,29.6650,-93.4789,0073,2.85,-0.93,3.0000,108.0000
1981-09-08 18:30:00 UTC,2444856.270833,29.6650,-93.4789,0073,2.70,-1.32,3.0000,116.0000
1981-09-08 19:00:00 UTC,2444856.291667,29.6650,-93.4789,0073,0.88,-0.47,1.0000,118.0000
1981-09-08 19:30:00 UTC,2444856.312500,29.6650,-93.4789,0073,0.89,-0.45,1.0000,117.0000
1981-09-08 20:00:00 UTC,2444856.333333,29.6650,-93.4789,0073,0.92,-0.39,1.0000,113.0000
1981-09-08 20:30:00 UTC,2444856.354167,29.6650,-93.4789,0073,1.83,-0.81,2.0000,114.0000
1981-09-08 21:00:00 UTC,2444856.375000,29.6650,-93.4789,0073,1.75,-0.97,2.0000,119.0000
1981-09-08 21:30:00 UTC,2444856.395833,29.6650,-93.4789,0073,2.54,-1.59,3.0000,122.0000
1981-09-08 22:00:00 UTC,2444856.416667,29.6650,-93.4789,0073,2.40,-1.81,3.0000,127.0000
1981-09-08 22:30:00 UTC,2444856.437500,29.6650,-93.4789,0073,1.97,-2.26,3.0000,139.0000
1981-09-08 23:00:00 UTC,2444856.458333,29.6650,-93.4789,0073,1.36,-2.67,3.0000,153.0000
1981-09-08 23:30:00 UTC,2444856.479167,29.6650,-93.4789,0073,0.93,-2.85,3.0000,162.0000
1981-09-09 00:00:00 UTC,2444856.500000,29.6650,-93.4789,0073,0.26,-0.97,1.0000,165.0000
1981-09-09 00:30:00 UTC,2444856.520833,29.6650,-93.4789,0073,0.05,-1.00,1.0000,177.0000
1981-09-09 01:00:00 UTC,2444856.541667,29.6650,-93.4789,0073,-0.10,-3.00,3.0000,182.0000
1981-09-09 01:30:00 UTC,2444856.562500,29.6650,-93.4789,0073,-0.44,-4.98,5.0000,185.0000
1981-09-09 02:00:00 UTC,2444856.583333,29.6650,-93.4789,0073,-0.84,-5.94,6.0000,188.0000
1981-09-09 02:30:00 UTC,2444856.604167,29.6650,-93.4789,0073,-1.22,-6.89,7.0000,190.0000
1981-09-09 03:00:00 UTC,2444856.625000,29.6650,-93.4789,0073,-1.66,-7.83,8.0000,192.0000
1981-09-09 03:30:00 UTC,2444856.645833,29.6650,-93.4789,0073,-1.75,-5.74,6.0000,197.0000
1981-09-09 04:00:00 UTC,2444856.666667,29.6650,-93.4789,0073,-1.36,1.46,2.0000,317.0000
1981-09-09 04:30:00 UTC,2444856.687500,29.6650,-93.4789,0073,-0.56,7.98,8.0000,356.0000
1981-09-09 05:00:00 UTC,2444856.708333,29.6650,-93.4789,0073,-0.58,10.98,11.0000,357.0000
1981-09-09 05:30:00 UTC,2444856.729167,29.6650,-93.4789,0073,0.77,10.97,11.0000,4.0000
1981-09-09 06:00:00 UTC,2444856.750000,29.6650,-93.4789,0073,3.51,11.48,12.0000,17.0000
1981-09-09 06:30:00 UTC,2444856.770833,29.6650,-93.4789,0073,5.26,10.79,12.0000,26.0000
1981-09-09 07:00:00 UTC,2444856.791667,29.6650,-93.4789,0073,7.08,10.90,13.0000,33.0000
1981-09-09 07:30:00 UTC,2444856.812500,29.6650,-93.4789,0073,9.00,10.72,14.0000,40.0000
1981-09-09 08:00:00 UTC,2444856.833333,29.6650,-93.4789,0073,10.07,9.73,14.0000,46.0000
1981-09-09 08:30:00 UTC,2444856.854167,29.6650,-93.4789,0073,11.47,8.03,14.0000,55.0000
1981-09-09 09:00:00 UTC,2444856.875000,29.6650,-93.4789,0073,13.48,6.58,15.0000,64.0000
1981-09-09 09:30:00 UTC,2444856.895833,29.6650,-93.4789,0073,16.07,5.53,17.0000,71.0000
1981-09-09 10:00:00 UTC,2444856.916667,29.6650,-93.4789,0073,18.35,4.92,19.0000,75.0000
1981-09-09 10:30:00 UTC,2444856.937500,29.6650,-93.4789,0073,18.82,2.64,19.0000,82.0000
1981-09-09 11:00:00 UTC,2444856.958333,29.6650,-93.4789,0073,17.93,1.57,18.0000,85.0000
1981-09-09 11:30:00 UTC,2444856.979167,29.6650,-93.4789,0073,15.84,2.23,16.0000,82.0000
1981-09-09 12:00:00 UTC,2444857.000000,29.6650,-93.4789,0073,14.89,1.83,15.0000,83.0000
1981-09-09 12:30:00 UTC,2444857.020833,29.6650,-93.4789,0073,16.00,0.28,16.0000,89.0000